{"data":{"norad_id":64247,"intl_designator":"2025-119Q","name":"STARLINK-33865","alt_names":[],"object_type":"PAYLOAD","status":"ACTIVE","operator":null,"country":"US","launch_date":"2025-06-03","launch_site_code":"AFETR","launch_vehicle":null,"mission":null,"orbit_class":"UNKNOWN","rcs_meters":null,"size_class":null,"mass_kg":null,"dimensions":null,"purposes":["comms"],"wikipedia_slug":null,"has_3d_model":false,"image_url":null,"decayed_at":null,"tle_current":{"epoch":"2026-05-24T22:28:08.847264Z","epoch_age_seconds":74462,"freshness":"FRESH","line1":"1 64247U 25119Q   26144.93621351  .00014366  00000+0  53067-3 0  9991","line2":"2 64247  42.9995 236.1540 0001533 288.1659  71.9026 15.27572790 55803","mean_motion":15.2757279,"eccentricity":0.0001533,"inclination_deg":42.9995,"raan_deg":236.154,"arg_perigee_deg":288.1659,"mean_anomaly_deg":71.9026,"bstar":0.00053067,"rev_number":5580,"period_min":94.267193643846,"perigee_km":482.01886232017,"apogee_km":484.12250859653,"semimajor_km":6861.2076854584,"source":"CELESTRAK","updated_at":"2026-05-25T13:38:20.354203Z"}}}